Location: Unspecified
(0.0000°N, 0.0000°E)
Time: 04:29:44
(UTC+00:00)

Vela 3A - Visible Passes

Search period start: 05 October 2024 00:00
Search period end: 15 October 2024 00:00
Orbit: 54103 x 169645 km, 23.7° (Epoch: 08 October)

Date Brightness Start Highest point End Pass type
(mag) Time Alt. Az. Time Alt. Az. Time Alt. Az.
05 Oct ? 00:25:38 10° ENE 06:12:23 65° N 11:55:27 10° WNW visible
06 Oct ? 03:03:13 10° ENE 08:42:12 69° N 14:18:35 10° WNW visible
07 Oct ? 05:28:49 10° E 11:23:31 83° N 17:26:15 10° W visible
08 Oct ? 19:48:44 10° E 02:45:11 73° N 09:11:09 10° WNW visible
10 Oct ? 01:03:27 10° ENE 06:44:53 66° N 12:23:11 10° WNW visible
11 Oct ? 03:25:08 10° ENE 09:05:49 72° N 14:44:29 10° WNW visible
12 Oct ? 06:16:20 10° E 12:30:58 86° S 19:43:58 10° WSW visible
13 Oct ? 22:04:41 10° ENE 04:09:23 67° N 10:06:53 10° WNW visible
